{"data":{"norad_id":65883,"epoch":"2026-05-24T19:33:33.519456Z","epoch_age_seconds":86925,"freshness":"FRESH","line1":"1 65883U 25224B   26144.81497129  .00023628  00000+0  70820-3 0  9993","line2":"2 65883  53.1589  16.7515 0000869  22.8288 337.2753 15.34401581 36495","mean_motion":15.34401581,"eccentricity":8.69e-5,"inclination_deg":53.1589,"raan_deg":16.7515,"arg_perigee_deg":22.8288,"mean_anomaly_deg":337.2753,"bstar":0.0007082,"rev_number":3649,"period_min":93.847661383503,"perigee_km":462.10407253743,"apogee_km":463.29300975448,"semimajor_km":6840.835541146,"source":"CELESTRAK","updated_at":"2026-05-25T13:38:20.978663Z"}}